| time (UTC) | temp F | wind direction | speed MPH | gust MPH | rain 1hr in | rain 24hr in | rain mn in | humidity % | barometer mb |
| 20260503220004 | 60 | 241 | 10.0 | 21.0 | 0.00 | 0.00 | 0.00 | 41 | 1012.7 |
| 20260503214512 | 60 | 238 | 10.0 | 17.0 | 0.00 | 0.00 | 0.00 | 41 | 1012.7 |
| 20260503213008 | 60 | 238 | 10.0 | 16.0 | 0.00 | 0.00 | 0.00 | 41 | 1012.8 |
| 20260503211507 | 59 | 240 | 6.0 | 16.0 | 0.00 | 0.00 | 0.00 | 42 | 1012.8 |
| 20260503210022 | 60 | 244 | 8.0 | 19.0 | 0.00 | 0.00 | 0.00 | 44 | 1013.0 |
| 20260503204505 | 60 | 276 | 11.0 | 16.0 | 0.00 | 0.00 | 0.00 | 43 | 1012.9 |
| 20260503203011 | 60 | 186 | 10.0 | 17.0 | 0.00 | 0.00 | 0.00 | 43 | 1013.0 |
| 20260503201516 | 61 | 205 | 5.0 | 17.0 | 0.00 | 0.00 | 0.00 | 44 | 1013.1 |
| 20260503200004 | 60 | 267 | 12.0 | 22.0 | 0.00 | 0.00 | 0.00 | 43 | 1013.3 |
| 20260503194505 | 60 | 220 | 10.0 | 21.0 | 0.00 | 0.00 | 0.00 | 43 | 1013.4 |
| 20260503193005 | 61 | 221 | 9.0 | 22.0 | 0.00 | 0.00 | 0.00 | 43 | 1013.8 |
| 20260503191504 | 61 | 265 | 10.0 | 18.0 | 0.00 | 0.00 | 0.00 | 43 | 1014.0 |
| 20260503190004 | 60 | 276 | 10.0 | 17.0 | 0.00 | 0.00 | 0.00 | 43 | 1014.2 |
| 20260503184508 | 60 | 274 | 9.0 | 17.0 | 0.00 | 0.00 | 0.00 | 44 | 1014.5 |
| 20260503183009 | 60 | 280 | 7.0 | 14.0 | 0.00 | 0.00 | 0.00 | 44 | 1014.6 |
| 20260503181510 | 59 | 217 | 9.0 | 16.0 | 0.00 | 0.00 | 0.00 | 49 | 1014.7 |
| 20260503180011 | 59 | 248 | 11.0 | 18.0 | 0.00 | 0.00 | 0.00 | 49 | 1014.8 |
| 20260503174505 | 59 | 295 | 9.0 | 16.0 | 0.00 | 0.00 | 0.00 | 51 | 1015.1 |
| 20260503173005 | 59 | 274 | 6.0 | 16.0 | 0.00 | 0.00 | 0.00 | 52 | 1015.2 |
| 20260503171504 | 59 | 246 | 5.0 | 17.0 | 0.00 | 0.00 | 0.00 | 51 | 1015.5 |
| 20260503081520 | 34 | 227 | 0.0 | 0.0 | 0.00 | 0.12 | 0.00 | 89 | 1016.7 |
| 20260503071518 | 36 | 235 | 0.0 | 1.0 | 0.00 | 0.13 | 0.00 | 88 | 1016.7 |
| 20260503054521 | 36 | 214 | 0.0 | 0.0 | 0.00 | 0.13 | 0.00 | 89 | 1017.0 |
| 20260503053023 | 36 | 203 | 0.0 | 0.0 | 0.00 | 0.13 | 0.00 | 88 | 1017.1 |
| 20260503051521 | 36 | 203 | 0.0 | 0.0 | 0.00 | 0.13 | 0.00 | 87 | 1017.1 |
| 20260503050022 | 37 | 203 | 0.0 | 0.0 | 0.00 | 0.13 | 0.00 | 83 | 1017.1 |
| 20260503044518 | 38 | 203 | 0.0 | 0.0 | 0.00 | 0.13 | 0.00 | 82 | 1017.2 |
| 20260503043022 | 39 | 203 | 0.0 | 0.0 | 0.00 | 0.13 | 0.00 | 80 | 1017.2 |
| 20260503041505 | 40 | 234 | 0.0 | 0.0 | 0.00 | 0.13 | 0.00 | 78 | 1017.2 |
| 20260503040006 | 41 | 210 | 1.0 | 4.0 | 0.00 | 0.13 | 0.00 | 78 | 1017.2 |
| 20260503034504 | 41 | 245 | 0.0 | 2.0 | 0.00 | 0.13 | 0.13 | 78 | 1017.4 |
| 20260503033006 | 41 | 231 | 0.0 | 3.0 | 0.00 | 0.13 | 0.13 | 77 | 1017.5 |
| 20260503031506 | 41 | 227 | 0.0 | 3.0 | 0.00 | 0.14 | 0.13 | 77 | 1017.5 |
| 20260503030007 | 41 | 228 | 1.0 | 3.0 | 0.00 | 0.15 | 0.13 | 76 | 1017.4 |
| 20260503024508 | 42 | 248 | 0.0 | 3.0 | 0.00 | 0.20 | 0.13 | 76 | 1017.6 |
| 20260503023007 | 42 | 235 | 1.0 | 3.0 | 0.00 | 0.22 | 0.13 | 75 | 1017.8 |
| 20260503021513 | 42 | 239 | 0.0 | 3.0 | 0.00 | 0.22 | 0.13 | 75 | 1017.7 |
| 20260503020005 | 42 | 237 | 0.0 | 3.0 | 0.00 | 0.22 | 0.13 | 74 | 1017.7 |
| 20260503014507 | 42 | 232 | 0.0 | 2.0 | 0.00 | 0.22 | 0.13 | 76 | 1017.6 |
| 20260503013009 | 41 | 223 | 0.0 | 1.0 | 0.00 | 0.22 | 0.13 | 77 | 1017.6 |
| 20260503011512 | 41 | 196 | 0.0 | 0.0 | 0.00 | 0.22 | 0.13 | 77 | 1017.6 |
| 20260503010008 | 41 | 193 | 0.0 | 0.0 | 0.00 | 0.22 | 0.13 | 75 | 1017.5 |
| 20260503004510 | 42 | 193 | 0.0 | 0.0 | 0.00 | 0.22 | 0.13 | 73 | 1017.4 |
| 20260503003003 | 42 | 193 | 0.0 | 1.0 | 0.00 | 0.22 | 0.13 | 71 | 1017.4 |
| 20260503001512 | 43 | 242 | 0.0 | 1.0 | 0.00 | 0.22 | 0.13 | 69 | 1017.4 |
| 20260503000015 | 43 | 246 | 0.0 | 1.0 | 0.00 | 0.22 | 0.13 | 66 | 1017.3 |
| 20260502234526 | 44 | 283 | 0.0 | 2.0 | 0.00 | 0.22 | 0.13 | 64 | 1017.2 |
| 20260502233012 | 44 | 293 | 2.0 | 6.0 | 0.00 | 0.22 | 0.13 | 61 | 1017.2 |
| 20260502231507 | 44 | 291 | 3.0 | 7.0 | 0.00 | 0.22 | 0.13 | 60 | 1017.2 |
| 20260502230014 | 44 | 290 | 4.0 | 8.0 | 0.00 | 0.22 | 0.13 | 59 | 1017.3 |
| 20260502224516 | 45 | 284 | 0.0 | 6.0 | 0.00 | 0.22 | 0.13 | 60 | 1017.4 |
| 20260502223020 | 45 | 258 | 2.0 | 9.0 | 0.00 | 0.22 | 0.13 | 57 | 1017.4 |
| 20260502221515 | 45 | 295 | 4.0 | 8.0 | 0.00 | 0.22 | 0.13 | 56 | 1017.4 |